Regional Weather Roundup
Issued by NWS

Home | Current Version | Previous Version | Graphics & Text | Print | Product List | Glossary On
Versions: 1 2 3 4 5 6 7 8 9 10 11 12 13 14 15 16 17 18 19 20 21 22 23 24 25 26 27 28
000
ASUS45 KTFX 231010
RWRMT
MONTANA REGIONAL WEATHER ROUNDUP
NATIONAL WEATHER SERVICE GREAT FALLS MT
400 AM MDT TUE AUG 23 2016

NOTE: "FAIR" INDICATES FEW OR NO CLOUDS BELOW 12000 FEET WITH NO
SIGNIFICANT WEATHER AND/OR OBSTRUCTIONS TO VISIBILITY.

MTZ001>007-043-231100-
WEST OF THE DIVIDE

CITY           SKY/WX    TMP DP  RH WIND       PRES   REMARKS
KALISPELL        N/A     47  39  74 VRB6      29.99R
MISSOULA         N/A     48  33  56 N3        30.06R
BUTTE          CLEAR     47  26  44 CALM      30.09R
MULLAN PASS      N/A     43  29  57 VRB3      30.11R
DEER LODGE       N/A     45  27  49 SW5       30.09R
EUREKA           N/A     52  36  54 CALM      30.00R
HAMILTON         N/A     46  32  57 CALM      30.07R
LIBBY            N/A     46  34  61 CALM      30.02R
PLAINS           N/A     48  35  60 CALM      30.03R
$$

MTZ008-052>055-231100-
SOUTHWEST MONTANA

CITY           SKY/WX    TMP DP  RH WIND       PRES   REMARKS
BOZEMAN        CLOUDY    53  36  52 SW6       30.03R
DILLON         CLOUDY    50  23  34 S12       30.04R
W YELLOWSTONE  CLOUDY    37  14  38 CALM      30.10R
ENNIS          MOCLDY    48  18  29 CALM      30.09S
THREE FORKS      N/A     53  14  21 CALM      30.02R
TWIN BRIDGES     N/A     50  20  30 E2        30.03R
$$

MTZ009-010-012-014-046-048-049-054-231100-
EAST SLOPES AND CENTRAL MONTANA

CITY           SKY/WX    TMP DP  RH WIND       PRES   REMARKS
CUT BANK       CLOUDY    53  36  52 N12       29.94R
GREAT FALLS    CLEAR     51  28  41 SW12      29.95S
MALMSTROM AFB  PTCLDY    52  31  43 MISG      29.94S
HELENA         CLEAR     57  29  34 W10       30.00S
CHOTEAU          N/A     57  32  38 W8        29.96S
CONRAD           N/A     54  39  56 S6        29.95R
$$

MTZ011-013-016-021-045-047-050-051-231100-
NORTH CENTRAL MONTANA

CITY           SKY/WX    TMP DP  RH WIND       PRES   REMARKS
HAVRE          PTCLDY    47  37  68 S9        29.88R
LEWISTOWN      CLOUDY    56  33  42 SW9       29.94R
N BAR RANCH      N/A     52  27  37 CALM      29.96S
CHINOOK          N/A     48  37  66 W7        29.87R
$$

MTZ017>020-022>027-061-062-231100-
NORTHEAST MONTANA

CITY           SKY/WX    TMP DP  RH WIND       PRES   REMARKS
GLASGOW        PTCLDY    56  35  45 W7        29.80R
JORDAN           N/A     54  32  43 W6        29.84R
SIDNEY         CLOUDY    64  42  44 NW18      29.72R
WOLF POINT     PTCLDY    63  36  36 SW7       29.77R
POPLAR           N/A     64  36  34 NW5       29.76R
SCOBEY           N/A     59  38  45 CALM      29.78R
$$

MTZ028>42-056>058-231100-
SOUTHCENTRAL AND SOUTHEAST MONTANA

CITY           SKY/WX    TMP DP  RH WIND       PRES   REMARKS
BAKER          CLOUDY    60  38  43 W12       29.75S
BILLINGS       PTCLDY    59  29  31 NW10      29.93R
LIVINGSTON     PTCLDY    58  24  27 W12       30.00R
MILES CITY     CLOUDY    66  28  24 NW14      29.81R
EKALAKA          N/A     60  34  37 W3        29.80R
FORSYTH          N/A     59  34  38 W7        29.85R
LAUREL           N/A     59  26  28 NW7       29.93R
ROUNDUP          N/A     56  27  33 SW5       29.85R
$$

REGIONAL REPORTS...DAKOTAS

CITY           SKY/WX    TMP DP  RH WIND       PRES   REMARKS
WILLISTON      CLEAR     66  38  35 N6        29.71R
MINOT          FOG       65  64  97 N3        29.57F VSB 1/4
DICKINSON      CLOUDY    59  42  53 NW13      29.64S
CROSBY           N/A     55  41  58 NW9       29.71R
BISMARCK       CLEAR     60  59  96 NE3       29.58F
GRAND FORKS    CLOUDY    71  65  81 S18G26    29.61F
FARGO          PTCLDY    71  62  73 SE15G25   29.67S
BUFFALO SD       N/A     65  39  38 NW17      29.64R
RAPID CITY     CLEAR     57  46  66 SE3       29.67F
$$

REGIONAL REPORTS...WYOMING/IDAHO/WASHINGTON

CITY           SKY/WX    TMP DP  RH WIND       PRES   REMARKS
GILLETTE       CLOUDY    61  32  33 W18       29.87R
SHERIDAN       CLEAR     61  26  26 W10       29.93R
BUFFALO WY     CLEAR     65  18  16 NW20G26   29.96R
CODY           CLOUDY    57  27  30 NW7       29.99R
YELLOWSTONE LA   N/A     37  17  44 CALM      30.16R
IDAHO FALLS    CLOUDY    54  28  36 S8        30.04R
SALMON         CLEAR     48  30  49 MISG      30.07R
BOISE            N/A     57  32  38 W5        30.01R
SPOKANE        MOCLDY    55  35  47 W5        30.05R
$$

REGIONAL REPORTS...ALBERTA

CITY           SKY/WX    TMP DP  RH WIND       PRES   REMARKS
EDMONTON       LGT RAIN  55  54  94 N17G23    29.79R
CALGARY        LGT RAIN  50  45  81 NW25G45   29.87R
LETHBRIDGE     LGT RAIN  55  45  67 NW15G24   29.90R
MEDICINE HAT   MOCLDY    55  46  71 W20G31    29.78R
WATERTON GATE    N/A     55  34  44 SW14G20     N/A
CARDSTON         N/A     52  39  62 SE3         N/A
MILK RIVER       N/A     52  41  66 N14         N/A
$$

REGIONAL REPORTS...SASKATCHEWAN

CITY           SKY/WX    TMP DP  RH WIND       PRES   REMARKS
SWIFT CURRENT  MOCLDY    50  43  76 SW18G24   29.72S
REGINA         MOCLDY    54  46  76 NW10      29.71F
SASKATOON      MOCLDY    50  48  93 S7        29.67S
CYPRESS HILLS    N/A     48  41  76 W14G24      N/A
VAL MARIE        N/A     50  37  62 W12         N/A
ROCKGLEN         N/A     55  39  54 W7          N/A
$$




USA.gov is the U.S. government's official web portal to all federal, state and local government web resources and services.